When you browse on this site, cookies collect data to enhance your experience and personalize the content and advertising you see.
Visit our Privacy Policy to learn more. By continuing to use the site, you agree to this use of cookies and data.
  • en France
  • Liste des pays
  • À 7 jours
  • Température de l'eau
  • Carte météo
  • Widgets météo
  • user-avatar
    Se connecter

    Météo par heure à Bulolo

    Ce jour, 25 Mai, Lundi

    Heure Température Précipitation Vent Pression Humidité
    00:00 +19°C° 0.1 mm 0 m/s 665 mmHg 97%
    01:00 +19°C° 0.1 mm 0 m/s 664 mmHg 96%
    02:00 +19°C° 0 mm 0 m/s 664 mmHg 96%
    03:00 +18°C° 0 mm 0 m/s 664 mmHg 96%
    04:00 +18°C° 0 mm 0 m/s 664 mmHg 96%
    05:00 +19°C° 0 mm 0 m/s 664 mmHg 96%
    06:00 +19°C° 0 mm 0 m/s 665 mmHg 95%
    07:00 +19°C° 0 mm 0 m/s 665 mmHg 95%
    08:00 +21°C° 0.1 mm 0 m/s 666 mmHg 88%
    09:00 +23°C° 0.1 mm 0 m/s 667 mmHg 81%
    10:00 +25°C° 0 mm 0 m/s 667 mmHg 77%
    11:00 +25°C° 0.8 mm 0 m/s 667 mmHg 78%
    12:00 +25°C° 0.8 mm 0 m/s 666 mmHg 80%
    13:00 +27°C° 0.8 mm 1 m/s 666 mmHg 82%
    14:00 +24°C° 0.9 mm 0 m/s 666 mmHg 84%
    15:00 +24°C° 0.9 mm 0 m/s 665 mmHg 87%
    16:00 +23°C° 0 mm 0 m/s 665 mmHg 89%
    17:00 +22°C° 0.5 mm 0 m/s 665 mmHg 92%
    18:00 +21°C° 0.5 mm 0 m/s 665 mmHg 95%
    19:00 +22°C° 0.5 mm 1 m/s 665 mmHg 97%
    20:00 +20°C° 0.1 mm 0 m/s 665 mmHg 97%
    21:00 +20°C° 0.1 mm 0 m/s 666 mmHg 97%
    22:00 +20°C° 0 mm 0 m/s 666 mmHg 97%
    23:00 +19°C° 0.1 mm 0 m/s 666 mmHg 97%

    Demain, 26 Mai, Mardi

    Heure Température Précipitation Vent Pression Humidité
    00:00 +19°C° 0.1 mm 0 m/s 665 mmHg 97%
    01:00 +19°C° 0.1 mm 0 m/s 665 mmHg 97%
    02:00 +19°C° 0 mm 0 m/s 665 mmHg 97%
    03:00 +19°C° 0 mm 0 m/s 665 mmHg 97%
    04:00 +19°C° 0 mm 0 m/s 665 mmHg 97%
    05:00 +19°C° 0 mm 0 m/s 665 mmHg 96%
    06:00 +19°C° 0 mm 0 m/s 665 mmHg 96%
    07:00 +19°C° 0 mm 0 m/s 666 mmHg 95%
    08:00 +21°C° 0 mm 0 m/s 666 mmHg 89%
    09:00 +23°C° 0 mm 0 m/s 667 mmHg 82%
    10:00 +27°C° 0 mm 1 m/s 667 mmHg 75%
    11:00 +27°C° 0.9 mm 1 m/s 667 mmHg 76%
    12:00 +27°C° 0.9 mm 1 m/s 666 mmHg 78%
    13:00 +27°C° 0.9 mm 1 m/s 666 mmHg 79%
    14:00 +27°C° 1.5 mm 1 m/s 665 mmHg 82%
    15:00 +26°C° 1.5 mm 1 m/s 665 mmHg 85%
    16:00 +26°C° 1.5 mm 1 m/s 664 mmHg 88%
    17:00 +24°C° 0.8 mm 1 m/s 664 mmHg 91%
    18:00 +23°C° 0.8 mm 1 m/s 665 mmHg 94%
    19:00 +22°C° 0.8 mm 1 m/s 665 mmHg 98%
    20:00 +22°C° 0.1 mm 1 m/s 665 mmHg 98%
    21:00 +20°C° 0.1 mm 0 m/s 665 mmHg 97%
    22:00 +19°C° 0.1 mm 0 m/s 666 mmHg 97%
    23:00 +19°C° 0 mm 0 m/s 666 mmHg 97%

    Après-demain, 27 Mai, Mercredi

    Heure Température Précipitation Vent Pression Humidité
    00:00 +19°C° 0 mm 0 m/s 665 mmHg 97%
    01:00 +19°C° 0 mm 0 m/s 665 mmHg 97%
    02:00 +19°C° 0 mm 0 m/s 665 mmHg 97%
    03:00 +19°C° 0 mm 0 m/s 664 mmHg 97%
    04:00 +19°C° 0 mm 0 m/s 664 mmHg 97%
    05:00 +19°C° 0 mm 0 m/s 665 mmHg 96%
    06:00 +19°C° 0 mm 0 m/s 665 mmHg 96%
    07:00 +19°C° 0 mm 0 m/s 666 mmHg 95%
    08:00 +21°C° 0 mm 0 m/s 666 mmHg 88%
    09:00 +25°C° 0 mm 1 m/s 667 mmHg 81%
    10:00 +27°C° 0 mm 1 m/s 667 mmHg 74%
    11:00 +27°C° 0.3 mm 1 m/s 667 mmHg 71%
    12:00 +28°C° 0.3 mm 1 m/s 666 mmHg 69%
    13:00 +28°C° 0.3 mm 1 m/s 666 mmHg 67%
    14:00 +28°C° 0.7 mm 1 m/s 665 mmHg 72%
    15:00 +27°C° 0.7 mm 1 m/s 665 mmHg 77%
    16:00 +26°C° 0.7 mm 1 m/s 664 mmHg 81%
    17:00 +25°C° 0.4 mm 1 m/s 664 mmHg 87%
    18:00 +23°C° 0.4 mm 1 m/s 664 mmHg 92%
    19:00 +22°C° 0.4 mm 1 m/s 664 mmHg 97%
    20:00 +21°C° 0 mm 1 m/s 665 mmHg 97%
    21:00 +21°C° 0 mm 1 m/s 665 mmHg 97%
    22:00 +21°C° 0 mm 1 m/s 665 mmHg 97%
    23:00 +20°C° 0 mm 1 m/s 665 mmHg 97%

    28 Mai, Jeudi

    Heure Température Précipitation Vent Pression Humidité
    00:00 +20°C° 0 mm 1 m/s 665 mmHg 97%
    01:00 +20°C° 0 mm 1 m/s 664 mmHg 97%
    02:00 +20°C° 0 mm 1 m/s 664 mmHg 97%
    03:00 +18°C° 0 mm 0 m/s 664 mmHg 97%
    04:00 +18°C° 0 mm 0 m/s 664 mmHg 97%
    05:00 +20°C° 0 mm 1 m/s 664 mmHg 96%
    06:00 +20°C° 0 mm 1 m/s 665 mmHg 95%
    07:00 +20°C° 0 mm 1 m/s 665 mmHg 95%
    08:00 +22°C° 0 mm 1 m/s 666 mmHg 86%
    09:00 +24°C° 0 mm 1 m/s 666 mmHg 78%
    10:00 +26°C° 0 mm 1 m/s 667 mmHg 70%
    11:00 +27°C° 0.3 mm 1 m/s 667 mmHg 69%
    12:00 +27°C° 0.3 mm 1 m/s 666 mmHg 69%
    13:00 +27°C° 0.3 mm 1 m/s 665 mmHg 69%
    14:00 +27°C° 0.6 mm 1 m/s 665 mmHg 73%
    15:00 +26°C° 0.6 mm 1 m/s 665 mmHg 77%
    16:00 +26°C° 0.6 mm 1 m/s 664 mmHg 81%
    17:00 +24°C° 0.3 mm 1 m/s 664 mmHg 86%
    18:00 +23°C° 0.3 mm 1 m/s 664 mmHg 92%
    19:00 +21°C° 0.3 mm 1 m/s 665 mmHg 97%
    20:00 +21°C° 0 mm 1 m/s 665 mmHg 96%
    21:00 +20°C° 0 mm 1 m/s 665 mmHg 96%
    22:00 +20°C° 0 mm 1 m/s 666 mmHg 96%
    23:00 +20°C° 0 mm 1 m/s 665 mmHg 96%

    29 Mai, Vendredi

    Heure Température Précipitation Vent Pression Humidité
    00:00 +20°C° 0 mm 1 m/s 665 mmHg 96%
    01:00 +20°C° 0 mm 1 m/s 664 mmHg 96%
    02:00 +19°C° 0 mm 1 m/s 664 mmHg 96%
    03:00 +19°C° 0 mm 1 m/s 664 mmHg 96%
    04:00 +19°C° 0 mm 1 m/s 664 mmHg 96%
    05:00 +20°C° 0 mm 1 m/s 664 mmHg 95%
    06:00 +20°C° 0 mm 1 m/s 664 mmHg 94%
    07:00 +20°C° 0 mm 1 m/s 665 mmHg 93%
    08:00 +22°C° 0 mm 1 m/s 665 mmHg 85%
    09:00 +24°C° 0 mm 1 m/s 666 mmHg 76%
    10:00 +26°C° 0 mm 1 m/s 667 mmHg 67%
    11:00 +27°C° 0.1 mm 1 m/s 666 mmHg 65%
    12:00 +28°C° 0.1 mm 1 m/s 666 mmHg 63%
    13:00 +28°C° 0.1 mm 2 m/s 665 mmHg 61%
    14:00 +27°C° 0.6 mm 1 m/s 665 mmHg 67%
    15:00 +27°C° 0.6 mm 1 m/s 664 mmHg 73%
    16:00 +26°C° 0.6 mm 1 m/s 664 mmHg 79%
    17:00 +24°C° 0.3 mm 1 m/s 664 mmHg 84%
    18:00 +23°C° 0.3 mm 1 m/s 664 mmHg 90%
    19:00 +21°C° 0.3 mm 1 m/s 664 mmHg 96%
    20:00 +21°C° 0 mm 1 m/s 664 mmHg 95%
    21:00 +20°C° 0 mm 1 m/s 665 mmHg 95%
    22:00 +20°C° 0 mm 1 m/s 665 mmHg 94%
    23:00 +20°C° 0 mm 1 m/s 665 mmHg 94%

    30 Mai, Samedi

    Heure Température Précipitation Vent Pression Humidité
    00:00 +17°C° 0 mm 0 m/s 664 mmHg 94%
    01:00 +17°C° 0 mm 0 m/s 664 mmHg 93%
    02:00 +17°C° 0 mm 0 m/s 664 mmHg 94%
    03:00 +17°C° 0 mm 0 m/s 664 mmHg 94%
    04:00 +17°C° 0 mm 0 m/s 663 mmHg 94%
    05:00 +17°C° 0 mm 0 m/s 664 mmHg 93%
    06:00 +17°C° 0 mm 0 m/s 664 mmHg 92%
    07:00 +18°C° 0 mm 0 m/s 665 mmHg 91%
    08:00 +22°C° 0 mm 1 m/s 666 mmHg 82%
    09:00 +25°C° 0 mm 1 m/s 666 mmHg 72%
    10:00 +27°C° 0 mm 1 m/s 667 mmHg 62%
    11:00 +28°C° 0.4 mm 1 m/s 666 mmHg 64%
    12:00 +28°C° 0.4 mm 1 m/s 666 mmHg 66%
    13:00 +28°C° 0.4 mm 1 m/s 665 mmHg 68%
    14:00 +27°C° 1.5 mm 1 m/s 665 mmHg 72%
    15:00 +27°C° 1.5 mm 1 m/s 665 mmHg 76%
    16:00 +26°C° 1.5 mm 1 m/s 664 mmHg 80%
    17:00 +25°C° 1.2 mm 1 m/s 664 mmHg 85%
    18:00 +23°C° 1.2 mm 1 m/s 664 mmHg 91%
    19:00 +21°C° 1.2 mm 1 m/s 664 mmHg 96%
    20:00 +21°C° 0.3 mm 1 m/s 665 mmHg 96%
    21:00 +21°C° 0.3 mm 1 m/s 665 mmHg 96%
    22:00 +18°C° 0.3 mm 0 m/s 665 mmHg 96%
    23:00 +18°C° 0 mm 0 m/s 665 mmHg 95%
    Voir plus